Location: Unspecified
(49.9820°N, 20.4363°E)
Time: 04:41:15
(UTC+02:00)

Vanguard 3 - Pass Details

Date: 23 May 2026
Orbit: 507 x 3204 km, 33.3° (Epoch: 6 June)

Event Time Altitude Azimuth Distance (km) Brightness Sun altitude
Rises 14:24:02 0° 253° (WSW) 6,230 12.1 53.6°
Reaches altitude 10° 14:28:01 10° 248° (WSW) 5,496 12.1 53.1°
Maximum altitude 14:44:15 45° 184° (S) 3,913 11.8 51.1°
Drops below altitude 10° 15:01:26 10° 120° (ESE) 5,789 11.4 48.9°
Sets 15:05:46 0° 114° (ESE) 6,573 11.5 48.3°
